Location: Brno
(49.2000°N, 16.6330°E)
Time: 16:22:53
(UTC+02:00)

ISS - Visible Passes

Search period start: 26 June 2022 00:00
Search period end: 06 July 2022 00:00
Orbit: 415 x 420 km, 51.6° (Epoch: 26 June)

Date Brightness Start Highest point End Pass type
(mag) Time Alt. Az. Time Alt. Az. Time Alt. Az.
29 Jun -1.7 03:23:05 12° S 03:25:04 18° SE 03:27:24 10° E visible
30 Jun -1.4 02:37:20 11° SE 02:37:51 12° SE 02:39:06 10° ESE visible
01 Jul -3.0 03:24:41 17° SSW 03:26:55 38° SSE 03:30:06 10° E visible
02 Jul -2.5 02:39:13 24° SSE 02:40:01 26° SE 02:42:54 10° E visible
03 Jul -1.8 01:53:54 17° SE 01:53:54 17° SE 01:55:43 10° E visible
03 Jul -3.8 03:26:52 13° WSW 03:29:46 77° SSE 03:33:11 10° ENE visible
04 Jul -3.6 02:41:42 29° SW 02:43:09 56° SSE 02:46:31 10° ENE visible
05 Jul -3.2 01:56:40 39° SSE 01:56:46 40° SSE 01:59:59 10° ENE visible
05 Jul -3.4 03:30:12 10° W 03:33:35 66° NNW 03:37:00 10° ENE visible
